Tracking 31029 objects as of 16-Jul-2025
HD Live streaming from Space Station
objects crossing your sky now

OBJECT E

Track OBJECT E now!
10-day predictions


NORAD ID: 57008
Int'l Code: 2023-085E
Perigee: 435.3 km
Apogee: 443.4 km
Inclination: 97.5 °
Period: 93.2 minutes
Semi major axis: 6810 km
RCS: Unknown
Launch date: June 15, 2023
Source: People's Republic of China (PRC)
Launch site: Taiyaun Space Center, China (TSC)
Your satellite tracking list
Your tracking list is empty




NASA's NSSDC Master Catalog

Two Line Element Set (TLE):
1 57008U 23085E   25196.59942228  .00034564  00000-0  73967-3 0  9999
2 57008  97.4736 308.2649 0005965 125.1747 235.0061 15.44706704115767
Source of the keplerian elements: AFSPC